User: anonymous   Login
Location: Marseilles
(40.7010°N, 83.3930°W)
Time: 02:08:19
(UTC-04:00)
Language:

Cosmos 1459 Rocket - Orbit

View from above orbital plane
View from above orbital plane
View from above satellite
View from above satellite

Ground track
Ground track

The orbit data is extracted from the following two-line orbital elements,

1 14059U 83042B   15085.87431976  .00000147  00000-0  12932-3 0  9992
2 14059 082.9707 305.5621 0043396 032.5313 044.0779 13.78502868603703
Epoch (UTC): 26 March 2015 20:59:01
Eccentricity: 0.0043396
inclination: 82.9707°
perigee height: 937 km
apogee height: 1001 km
right ascension of ascending node: 305.5621°
argument of perigee: 32.5313°
revolutions per day: 13.78502868
mean anomaly at epoch: 44.0779°
orbit number at epoch: 60370

The dashed part of the orbit path shows where the satellite is in the earth's shadow,  

DLR